Weather History for Resia Pass, Italy

Change the Weather History Date:

Tuesday, November 19, 2013

  Actual Average Record
Temperature  
Mean Temperature 37 °F -  
Max Temperature 39 °F 36 °F 59 °F (2003)
Min Temperature 35 °F 24 °F 14 °F (1998)
Degree Days  
Heating Degree Days 28    
Moisture  
Dew Point 34 °F    
Average Humidity 91    
Maximum Humidity 93    
Minimum Humidity 87    
Precipitation  
Precipitation 0.00 in - - ()
Sea Level Pressure  
Sea Level Pressure 29.65 in    
Wind  
Wind Speed 4 mph ()    
Max Wind Speed 8 mph    
Max Gust Speed -    
Visibility 1.0 miles    
Events      
Averages and records for this station are not official NWS values.
T = Trace of Precipitation, MM = Missing Value Source: Averaged Metar Reports

Daily Weather History Graph

Daily Weather History Graph

Search for Another Location

Airport:

Trip Planner

Search our weather history database for the weather conditions in past years. The results will help you decide how hot, cold, wet, or windy it might be!

Date:

Astronomy

Nov. 19, 2013 Rise Set
Actual Time 7:26 AM CET 4:39 PM CET
Civil Twilight 6:53 AM CET 5:13 PM CET
Nautical Twilight 6:15 AM CET 5:50 PM CET
Astronomical Twilight 5:39 AM CET 6:26 PM CET
Moon 6:15 PM CET (11/19) 8:53 AM CET (11/19)
Length of Visible Light 10h 20m
Length of Day
9h 13m
Full, 97% of the Moon is Illuminated
Nov 19
Full
Nov 25
Last Quarter
Dec 3
New
Dec 9
First Quarter
Dec 17
Full

Hourly Weather History & Observations

Time (CET) Temp. Windchill Dew Point Humidity Pressure Visibility Wind Dir Wind Speed Gust Speed Precip Events Conditions
12:55 AM 35.6 °F 31.7 °F 33.8 °F 93% 29.86 in 1.2 mi South 4.6 mph - N/A   Overcast
2:55 AM 35.6 °F 30.7 °F 33.8 °F 93% 29.80 in 0.9 mi SSE 5.8 mph - N/A   Overcast
3:55 AM 35.6 °F 29.9 °F 33.8 °F 93% 29.77 in 0.7 mi South 6.9 mph - N/A   Overcast
4:55 AM 35.6 °F 29.9 °F 33.8 °F 93% 29.74 in 0.7 mi SSW 6.9 mph - N/A   Overcast
5:55 AM 35.6 °F 29.2 °F 33.8 °F 93% 29.74 in 0.6 mi South 8.1 mph - N/A   Overcast
6:55 AM 35.6 °F 31.7 °F 33.8 °F 93% 29.74 in 0.7 mi South 4.6 mph - N/A   Overcast
7:55 AM 35.6 °F - 33.8 °F 93% 29.74 in 1.2 mi SSW 2.3 mph - N/A   Overcast
8:55 AM 35.6 °F 32.8 °F 33.8 °F 93% 29.71 in 0.7 mi SSW 3.5 mph - N/A   Overcast
9:55 AM 35.6 °F - 33.8 °F 93% 29.71 in 0.7 mi South 2.3 mph - N/A   Overcast
11:55 AM 37.4 °F 34.9 °F 33.8 °F 87% 29.68 in 1.2 mi SSW 3.5 mph - N/A   Overcast
12:55 PM 37.4 °F 34.9 °F 33.8 °F 87% 29.65 in 1.2 mi South 3.5 mph - N/A   Overcast
1:55 PM 39.2 °F - 35.6 °F 87% 29.65 in 1.2 mi Calm Calm - N/A   Overcast
2:55 PM 39.2 °F 37.0 °F 35.6 °F 87% 29.56 in 1.9 mi South 3.5 mph - N/A   Overcast
3:55 PM 39.2 °F 34.2 °F 35.6 °F 87% 29.56 in 1.2 mi SSE 6.9 mph - N/A   Mist
4:55 PM 37.4 °F 32.8 °F 33.8 °F 87% 29.56 in 1.2 mi South 5.8 mph - N/A   Overcast
5:55 PM 35.6 °F 30.7 °F 33.8 °F 93% 29.56 in 0.9 mi South 5.8 mph - N/A   Overcast
7:55 PM 35.6 °F 30.7 °F 33.8 °F 93% 29.56 in 1.2 mi South 5.8 mph - N/A   Overcast
8:55 PM 35.6 °F 32.8 °F 33.8 °F 93% 29.56 in 0.9 mi South 3.5 mph - N/A   Overcast
9:55 PM 35.6 °F 31.7 °F 33.8 °F 93% 29.53 in 0.9 mi South 4.6 mph - N/A   Overcast
10:55 PM 35.6 °F 30.7 °F 33.8 °F 93% 29.53 in 0.6 mi South 5.8 mph - N/A   Overcast
11:55 PM 35.6 °F 30.7 °F 33.8 °F 93% 29.53 in 0.6 mi South 5.8 mph - N/A   Overcast